Location: Kawakawa
(35.3830°S, 174.0670°E)
Time: 23:56:19
(UTC+13:00)

A-11 Canister half - Pass Details

Date: 10 December 2019
Orbit: 1525 x 1684 km, 47.3° (Epoch: 27 January)

Event Time Altitude Azimuth Distance (km) Brightness Sun altitude
Rises 03:42:57 0° 242° (WSW) 4,747 11.5 -22.2°
Reaches altitude 10° 03:46:26 10° 252° (WSW) 3,779 10.9 -21.8°
Maximum altitude 03:54:28 31° 309° (NW) 2,522 9.6 -20.7°
Enters shadow 03:56:23 29° 329° (NNW) 2,620 9.6 -20.5°
Exits shadow 04:01:57 12° 4° (N) 3,667 10.6 -19.8°
Drops below altitude 10° 04:02:43 10° 7° (N) 3,862 10.7 -19.7°
Sets 04:06:21 0° 16° (NNE) 4,865 11.3 -19.2°
